Meteo Giornale » Osservazioni meteo Italia » Palermo-Punta Raisi

ore: 13:50 - Osservazioni Meteo Palermo-Punta Raisi
Lat. 38° 11' N Lon. 13° 6' E Alt. 21 metri s.l.m.

sereno Europe/Rome

23 °C

Sereno

Temp. 24 Ore

17 °C

23 °C

Nord/Nord-Est

11.1 Km/h

Dew point 17 °C

Umidità 68 %

Visibilità  10 Km

Il sole sorge alle ore 05:47

Il sole tramonta alle ore 20:21

Data e Ora Cielo e Fenomeni T °C DP °C Um. % Pres. hPa Vis. km Vento km/h
Oggi h: 13:50 sereno Sereno 23 17 68 1016 10 N/NE 11.1
Oggi h: 13:20 sereno Sereno 23 17 68 1016 10 N 11.1
Oggi h: 12:50 sereno Sereno 23 17 68 1016 10 N/NO 9.3
Oggi h: 12:20 sereno Sereno 23 17 68 1016 10 N 9.3
Oggi h: 11:50 sereno Sereno 22 17 73 1016 10 N 11.1
Oggi h: 11:20 sereno Sereno 22 17 73 1016 10 N 13
Oggi h: 10:50 sereno Sereno 22 16 68 1016 10 N/NE 11.1
Oggi h: 10:20 sereno Sereno 22 16 68 1016 10 N 7.4
Oggi h: 09:50 sereno Sereno 21 15 68 1016 10 N 5.5
Oggi h: 09:20 sereno Sereno 20 15 72 1015 10 N 5.5
Oggi h: 08:50 sereno Sereno 20 15 72 1016 10 O 7.4
Oggi h: 08:20 sereno Sereno 21 15 68 1015 10 N 3.7
Oggi h: 07:50 sereno Sereno 20 14 68 1015 10 N 5.5
Oggi h: 07:20 sereno Sereno 18 13 72 1015 10 S/SO 7.4
Oggi h: 06:50 sereno Sereno 18 13 72 1016 10 SO 7.4
Oggi h: 06:20 sereno Sereno 19 13 68 1016 10 N 5.5
Oggi h: 05:50 sereno Sereno 17 13 77 1016 10 S 9.3
Oggi h: 05:20 sereno Sereno 18 14 77 1016 10 SO 13
Oggi h: 04:50 sereno Sereno 18 15 82 1016 10 SO 14.8
Oggi h: 04:20 sereno Sereno 19 16 82 1016 10 SO 14.8
Oggi h: 03:50 sereno Sereno 19 16 82 1016 10 SO 18.5
Oggi h: 02:50 sereno Sereno 18 15 82 1017 10 S 7.4
Oggi h: 02:20 sereno Sereno 18 15 82 1017 10 E/NE 7.4
Oggi h: 01:50 sereno Sereno 18 15 82 1017 10 N 3.7
Oggi h: 00:50 sereno Sereno 18 15 82 1017 10 N 3.7
Oggi h: 00:20 sereno Sereno 20 16 77 1018 10 SO 7.4
Ieri h: 23:50 sereno Sereno 20 16 77 1018 10 SO 7.4
Ieri h: 23:20 sereno Sereno 20 16 77 1018 10 E/NE 16.7
Ieri h: 22:50 sereno Sereno 20 15 72 1018 10 E/NE 22.2
Ieri h: 22:20 sereno Sereno 21 16 73 1018 10 NE 20.3
Ieri h: 21:50 sereno Sereno 21 16 73 1018 10 E/NE 20.3
Ieri h: 21:20 sereno Sereno 20 15 72 1017 10 NE 18.5
Ieri h: 20:50 sereno Sereno 21 15 68 1017 10 NE 20.3
Ieri h: 20:20 sereno Sereno 21 15 68 1017 10 NE 22.2
Ieri h: 19:50 sereno Sereno 21 15 68 1016 10 NE 25.9
Ieri h: 19:20 sereno Sereno 21 16 73 1016 10 NE 27.8
Ieri h: 18:50 sereno Sereno 22 16 68 1016 10 NE 25.9
Ieri h: 18:20 sereno Sereno 22 16 68 1016 10 NE 29.6
Ieri h: 17:50 sereno Sereno 22 16 68 1017 10 NE 27.8
Ieri h: 17:20 sereno Sereno 22 16 68 1017 10 NE 29.6
Ieri h: 16:50 sereno Sereno 22 16 68 1017 10 NE 27.8
Ieri h: 16:20 sereno Sereno 22 17 73 1018 10 NE 29.6
Ieri h: 15:50 sereno Sereno 22 16 68 1017 10 NE 31.5
Ieri h: 15:20 poco_nuvoloso Poco Nuvoloso 22 16 68 1017 10 NE 29.6
Ieri h: 14:50 poco_nuvoloso Poco Nuvoloso 22 17 73 1018 10 NE 31.5